Location: Stara Lesna
(49.1528°N, 20.2911°E)
Time: 19:09:57
(UTC+02:00)

Cosmos 2346 Rocket - Pass Details

Date: 13 July 2020
Orbit: 936 x 981 km, 82.9° (Epoch: 11 August)

Event Time Altitude Azimuth Distance (km) Brightness Sun altitude
Rises 02:24:59 0° 350° (N) 3,667 8.5 -15.6°
Reaches altitude 10° 02:27:31 10° 351° (N) 2,710 7.7 -15.5°
Maximum altitude 02:33:44 87° 80° (E) 963 4.5 -15.0°
Enters shadow 02:39:11 13° 171° (S) 2,415 6.1 -14.6°
